Time,TemperatureF,DewpointF,PressureIn,WindDirection,WindDirectionDegrees,WindSpeedMPH,WindSpeedGustMPH,Humidity,HourlyPrecipIn,Conditions,Clouds,dailyrainin,SoftwareType,DateUTC
2013-07-03 08:11:00,65.0,64.4,30.28,South,180,0.0,0.0,98,0.00,,---,0.00,VWS V14.01,2013-07-03 12:11:00,
2013-07-03 08:12:00,65.0,64.4,30.28,South,180,0.0,0.0,98,0.03,,---,0.00,VWS V14.01,2013-07-03 12:12:00,
2013-07-03 08:16:00,65.0,64.4,30.28,NW,315,0.0,0.0,98,0.03,,---,0.00,VWS V14.01,2013-07-03 12:16:00,
2013-07-03 08:20:00,65.0,64.4,30.29,North,360,0.0,0.0,98,0.03,,---,0.00,VWS V14.01,2013-07-03 12:20:00,
2013-07-03 08:25:00,65.0,64.4,30.29,NW,315,1.0,2.0,98,0.03,,---,0.00,VWS V14.01,2013-07-03 12:25:00,
2013-07-03 08:30:00,66.0,65.7,30.29,NW,315,0.0,0.0,99,0.03,,---,0.00,VWS V14.01,2013-07-03 12:30:00,
2013-07-03 08:35:00,66.0,65.7,30.29,WSW,247,0.0,0.0,99,0.03,,---,0.00,VWS V14.01,2013-07-03 12:35:00,
2013-07-03 08:40:00,67.0,66.7,30.29,WSW,247,0.0,0.0,99,0.03,,---,0.00,VWS V14.01,2013-07-03 12:40:00,
2013-07-03 08:45:00,68.0,67.7,30.29,NNW,337,0.0,2.0,99,0.03,,---,0.00,VWS V14.01,2013-07-03 12:45:00,
2013-07-03 08:46:00,68.0,67.7,30.29,NNW,337,0.0,2.0,99,0.03,,---,0.00,VWS V14.01,2013-07-03 12:46:00,
2013-07-03 08:51:00,69.0,68.7,30.29,North,360,1.0,3.0,99,0.03,,---,0.00,VWS V14.01,2013-07-03 12:51:00,
2013-07-03 08:56:00,69.0,68.7,30.30,NW,315,0.0,3.0,99,0.03,,---,0.00,VWS V14.01,2013-07-03 12:56:00,
2013-07-03 09:01:00,69.0,68.7,30.30,South,180,0.0,0.0,99,0.03,,---,0.00,VWS V14.01,2013-07-03 13:01:00,
2013-07-03 09:06:00,70.0,69.4,30.30,South,180,0.0,1.0,98,0.03,,---,0.00,VWS V14.01,2013-07-03 13:06:00,
2013-07-03 09:11:00,71.0,69.2,30.30,South,180,0.0,0.0,94,0.03,,---,0.00,VWS V14.01,2013-07-03 13:11:00,
2013-07-03 09:16:00,72.0,69.2,30.30,WSW,247,0.0,2.0,91,0.03,,---,0.00,VWS V14.01,2013-07-03 13:16:00,
2013-07-03 09:21:00,73.0,69.2,30.30,WSW,247,0.0,0.0,88,0.00,,---,0.00,VWS V14.01,2013-07-03 13:21:00,
2013-07-03 09:25:00,74.0,69.2,30.31,WSW,247,0.0,2.0,85,0.00,,---,0.00,VWS V14.01,2013-07-03 13:25:00,
2013-07-03 09:30:00,74.0,68.5,30.31,NW,315,0.0,2.0,83,0.00,,---,0.00,VWS V14.01,2013-07-03 13:30:00,
2013-07-03 09:35:00,75.0,69.1,30.31,South,180,0.0,2.0,82,0.00,,---,0.00,VWS V14.01,2013-07-03 13:35:00,
2013-07-03 09:37:00,75.0,69.1,30.31,NW,315,0.0,2.0,82,0.00,,---,0.00,VWS V14.01,2013-07-03 13:37:00,
2013-07-03 09:42:00,76.0,69.8,30.31,WNW,292,0.0,2.0,81,0.00,,---,0.00,VWS V14.01,2013-07-03 13:42:00,
2013-07-03 09:47:00,76.0,69.0,30.31,WNW,292,0.0,2.0,79,0.00,,---,0.00,VWS V14.01,2013-07-03 13:47:00,
2013-07-03 09:52:00,77.0,70.7,30.31,NNW,337,0.0,0.0,81,0.00,,---,0.00,VWS V14.01,2013-07-03 13:52:00,
2013-07-03 09:57:00,78.0,70.6,30.31,West,270,0.0,2.0,78,0.00,,---,0.00,VWS V14.01,2013-07-03 13:57:00,
2013-07-03 10:02:00,79.0,71.2,30.31,SSW,202,0.0,2.0,77,0.00,,---,0.00,VWS V14.01,2013-07-03 14:02:00,
2013-07-03 10:06:00,79.0,71.9,30.31,SW,225,0.0,2.0,79,0.00,,---,0.00,VWS V14.01,2013-07-03 14:06:00,
2013-07-03 10:09:00,79.0,71.6,30.31,SW,225,0.0,2.0,78,0.00,,---,0.00,VWS V14.01,2013-07-03 14:09:00,
2013-07-03 10:14:00,80.0,71.4,30.31,West,270,0.0,2.0,75,0.00,,---,0.00,VWS V14.01,2013-07-03 14:14:00,
2013-07-03 10:17:00,79.0,70.8,30.31,WNW,292,1.0,3.0,76,0.00,,---,0.00,VWS V14.01,2013-07-03 14:17:00,
2013-07-03 10:23:00,80.0,72.2,30.31,South,180,0.0,0.0,77,0.00,,---,0.00,VWS V14.01,2013-07-03 14:23:00,
2013-07-03 10:28:00,80.0,71.8,30.31,SW,225,0.0,2.0,76,0.00,,---,0.00,VWS V14.01,2013-07-03 14:28:00,
2013-07-03 10:30:00,80.0,72.2,30.31,SSW,202,0.0,0.0,77,0.00,,---,0.00,VWS V14.01,2013-07-03 14:30:00,
2013-07-03 10:35:00,79.0,71.2,30.31,West,270,0.0,3.0,77,0.00,,---,0.00,VWS V14.01,2013-07-03 14:35:00,
2013-07-03 10:38:00,79.0,71.9,30.31,South,180,0.0,3.0,79,0.00,,---,0.00,VWS V14.01,2013-07-03 14:38:00,
2013-07-03 10:41:00,79.0,71.6,30.31,WSW,247,0.0,0.0,78,0.00,,---,0.00,VWS V14.01,2013-07-03 14:41:00,
2013-07-03 10:46:00,79.0,72.3,30.31,South,180,1.0,2.0,80,0.00,,---,0.00,VWS V14.01,2013-07-03 14:46:00,
2013-07-03 10:51:00,80.0,72.5,30.31,ENE,67,0.0,0.0,78,0.00,,---,0.00,VWS V14.01,2013-07-03 14:51:00,
2013-07-03 10:56:00,80.0,72.2,30.31,SW,225,2.0,2.0,77,0.00,,---,0.00,VWS V14.01,2013-07-03 14:56:00,
2013-07-03 10:58:00,80.0,71.8,30.31,WNW,292,0.0,6.0,76,0.00,,---,0.00,VWS V14.01,2013-07-03 14:58:00,
2013-07-03 11:03:00,81.0,71.9,30.31,South,180,0.0,3.0,74,0.00,,---,0.00,VWS V14.01,2013-07-03 15:03:00,
2013-07-03 11:08:00,81.0,71.9,30.31,SSE,157,0.0,3.0,74,0.00,,---,0.00,VWS V14.01,2013-07-03 15:08:00,
2013-07-03 11:13:00,81.0,72.3,30.31,WSW,247,0.0,2.0,75,0.00,,---,0.00,VWS V14.01,2013-07-03 15:13:00,
2013-07-03 11:15:00,81.0,72.7,30.31,East,90,0.0,2.0,76,0.00,,---,0.00,VWS V14.01,2013-07-03 15:15:00,
2013-07-03 11:20:00,81.0,72.3,30.31,SSW,202,0.0,0.0,75,0.00,,---,0.00,VWS V14.01,2013-07-03 15:20:00,
2013-07-03 11:25:00,81.0,72.7,30.31,North,360,1.0,2.0,76,0.00,,---,0.00,VWS V14.01,2013-07-03 15:25:00,
2013-07-03 11:28:00,82.0,72.9,30.31,WSW,247,2.0,4.0,74,0.00,,---,0.00,VWS V14.01,2013-07-03 15:28:00,
2013-07-03 11:33:00,82.0,72.9,30.31,WSW,247,0.0,2.0,74,0.00,,---,0.00,VWS V14.01,2013-07-03 15:33:00,
2013-07-03 11:38:00,82.0,72.9,30.31,WSW,247,0.0,2.0,74,0.00,,---,0.00,VWS V14.01,2013-07-03 15:38:00,
2013-07-03 11:40:00,82.0,72.5,30.31,NNW,337,0.0,2.0,73,0.00,,---,0.00,VWS V14.01,2013-07-03 15:40:00,
2013-07-03 11:45:00,82.0,72.5,30.31,NW,315,0.0,7.0,73,0.00,,---,0.00,VWS V14.01,2013-07-03 15:45:00,
2013-07-03 11:50:00,82.0,72.5,30.31,SSW,202,0.0,7.0,73,0.00,,---,0.00,VWS V14.01,2013-07-03 15:50:00,
2013-07-03 11:52:00,82.0,72.9,30.31,SSW,202,0.0,1.0,74,0.00,,---,0.00,VWS V14.01,2013-07-03 15:52:00,
2013-07-03 11:57:00,82.0,72.9,30.31,ESE,112,0.0,2.0,74,0.00,,---,0.00,VWS V14.01,2013-07-03 15:57:00,
2013-07-03 12:02:00,82.0,72.9,30.31,SSW,202,0.0,0.0,74,0.00,,---,0.00,VWS V14.01,2013-07-03 16:02:00,
2013-07-03 12:07:00,82.0,72.9,30.31,SW,225,0.0,2.0,74,0.00,,---,0.00,VWS V14.01,2013-07-03 16:07:00,
2013-07-03 12:12:00,82.0,72.9,30.31,SW,225,0.0,4.0,74,0.00,,---,0.00,VWS V14.01,2013-07-03 16:12:00,
2013-07-03 12:17:00,82.0,72.9,30.31,SW,225,0.0,4.0,74,0.00,,---,0.00,VWS V14.01,2013-07-03 16:17:00,
2013-07-03 12:22:00,82.0,72.1,30.31,SSW,202,0.0,4.0,72,0.00,,---,0.00,VWS V14.01,2013-07-03 16:22:00,
2013-07-03 12:27:00,83.0,73.5,30.31,NW,315,0.0,4.0,73,0.00,,---,0.00,VWS V14.01,2013-07-03 16:27:00,
2013-07-03 12:32:00,83.0,73.1,30.31,West,270,0.0,2.0,72,0.00,,---,0.00,VWS V14.01,2013-07-03 16:32:00,
2013-07-03 12:37:00,83.0,71.4,30.31,North,360,0.0,4.0,68,0.00,,---,0.00,VWS V14.01,2013-07-03 16:37:00,
2013-07-03 12:42:00,84.0,71.9,30.31,SW,225,0.0,4.0,67,0.00,,---,0.00,VWS V14.01,2013-07-03 16:42:00,
2013-07-03 12:47:00,85.0,71.0,30.31,SW,225,0.0,4.0,63,0.00,,---,0.00,VWS V14.01,2013-07-03 16:47:00,
2013-07-03 12:52:00,85.0,72.4,30.31,West,270,0.0,4.0,66,0.00,,---,0.00,VWS V14.01,2013-07-03 16:52:00,
2013-07-03 12:57:00,85.0,71.0,30.31,South,180,2.0,4.0,63,0.00,,---,0.00,VWS V14.01,2013-07-03 16:57:00,
2013-07-03 13:02:00,85.0,71.5,30.30,North,360,0.0,4.0,64,0.00,,---,0.00,VWS V14.01,2013-07-03 17:02:00,
2013-07-03 13:07:00,86.0,72.4,30.30,WSW,247,0.0,4.0,64,0.00,,---,0.00,VWS V14.01,2013-07-03 17:07:00,
2013-07-03 13:12:00,86.0,71.0,30.30,North,360,0.0,4.0,61,0.00,,---,0.00,VWS V14.01,2013-07-03 17:12:00,
2013-07-03 13:17:00,86.0,71.0,30.30,SSW,202,4.0,4.0,61,0.00,,---,0.00,VWS V14.01,2013-07-03 17:17:00,
2013-07-03 13:22:00,86.0,71.0,30.30,SSW,202,1.0,8.0,61,0.00,,---,0.00,VWS V14.01,2013-07-03 17:22:00,
2013-07-03 13:27:00,86.0,71.5,30.30,West,270,0.0,8.0,62,0.00,,---,0.00,VWS V14.01,2013-07-03 17:27:00,
2013-07-03 13:32:00,85.0,70.1,30.30,East,90,0.0,3.0,61,0.00,,---,0.00,VWS V14.01,2013-07-03 17:32:00,
2013-07-03 13:37:00,85.0,71.0,30.30,SE,135,1.0,4.0,63,0.00,,---,0.00,VWS V14.01,2013-07-03 17:37:00,
2013-07-03 13:42:00,85.0,71.0,30.30,South,180,1.0,3.0,63,0.00,,---,0.00,VWS V14.01,2013-07-03 17:42:00,
2013-07-03 13:47:00,85.0,70.5,30.30,SW,225,0.0,4.0,62,0.00,,---,0.00,VWS V14.01,2013-07-03 17:47:00,
2013-07-03 13:52:00,85.0,71.0,30.30,NNW,337,1.0,3.0,63,0.00,,---,0.00,VWS V14.01,2013-07-03 17:52:00,
2013-07-03 13:57:00,85.0,69.1,30.30,SW,225,2.0,5.0,59,0.00,,---,0.00,VWS V14.01,2013-07-03 17:57:00,
2013-07-03 14:02:00,86.0,71.0,30.30,SE,135,1.0,2.0,61,0.00,,---,0.00,VWS V14.01,2013-07-03 18:02:00,
2013-07-03 14:07:00,86.0,71.0,30.30,SSE,157,0.0,4.0,61,0.00,,---,0.00,VWS V14.01,2013-07-03 18:07:00,
2013-07-03 14:12:00,87.0,71.4,30.30,SSW,202,0.0,2.0,60,0.00,,---,0.00,VWS V14.01,2013-07-03 18:12:00,
2013-07-03 14:17:00,87.0,71.4,30.30,West,270,0.0,6.0,60,0.00,,---,0.00,VWS V14.01,2013-07-03 18:17:00,
2013-07-03 14:22:00,86.0,69.5,30.30,SW,225,0.0,4.0,58,0.00,,---,0.00,VWS V14.01,2013-07-03 18:22:00,
2013-07-03 14:27:00,86.0,71.5,30.30,SW,225,2.0,4.0,62,0.00,,---,0.00,VWS V14.01,2013-07-03 18:27:00,
2013-07-03 14:32:00,86.0,71.0,30.30,West,270,0.0,6.0,61,0.00,,---,0.00,VWS V14.01,2013-07-03 18:32:00,
2013-07-03 14:37:00,86.0,70.5,30.30,WSW,247,0.0,6.0,60,0.00,,---,0.00,VWS V14.01,2013-07-03 18:37:00,
2013-07-03 14:42:00,85.0,70.1,30.30,North,360,0.0,2.0,61,0.00,,---,0.00,VWS V14.01,2013-07-03 18:42:00,
2013-07-03 14:47:00,86.0,71.5,30.30,WNW,292,0.0,6.0,62,0.00,,---,0.00,VWS V14.01,2013-07-03 18:47:00,
2013-07-03 14:52:00,87.0,70.9,30.29,SW,225,2.0,3.0,59,0.00,,---,0.00,VWS V14.01,2013-07-03 18:52:00,
2013-07-03 14:57:00,87.0,72.4,30.29,WNW,292,0.0,4.0,62,0.00,,---,0.00,VWS V14.01,2013-07-03 18:57:00,
2013-07-03 15:02:00,87.0,70.9,30.30,South,180,2.0,5.0,59,0.00,,---,0.00,VWS V14.01,2013-07-03 19:02:00,
2013-07-03 15:07:00,87.0,71.9,30.29,SSW,202,2.0,5.0,61,0.00,,---,0.00,VWS V14.01,2013-07-03 19:07:00,
2013-07-03 15:13:00,87.0,71.4,30.29,South,180,2.0,8.0,60,0.00,,---,0.00,VWS V14.01,2013-07-03 19:13:00,
2013-07-03 15:18:00,88.0,71.9,30.29,South,180,0.0,8.0,59,0.00,,---,0.00,VWS V14.01,2013-07-03 19:18:00,
2013-07-03 15:23:00,89.0,72.3,30.29,SSW,202,1.0,2.0,58,0.00,,---,0.00,VWS V14.01,2013-07-03 19:23:00,
2013-07-03 15:28:00,89.0,71.8,30.29,NNW,337,2.0,6.0,57,0.00,,---,0.00,VWS V14.01,2013-07-03 19:28:00,
2013-07-03 15:33:00,89.0,71.3,30.28,NW,315,0.0,4.0,56,0.00,,---,0.00,VWS V14.01,2013-07-03 19:33:00,
2013-07-03 15:38:00,90.0,72.2,30.28,SW,225,0.0,4.0,56,0.00,,---,0.00,VWS V14.01,2013-07-03 19:38:00,
2013-07-03 15:43:00,89.0,71.3,30.28,SSW,202,0.0,1.0,56,0.00,,---,0.00,VWS V14.01,2013-07-03 19:43:00,
2013-07-03 15:48:00,90.0,72.2,30.28,SSE,157,2.0,3.0,56,0.00,,---,0.00,VWS V14.01,2013-07-03 19:48:00,
2013-07-03 15:53:00,89.0,71.3,30.28,West,270,0.0,2.0,56,0.00,,---,0.00,VWS V14.01,2013-07-03 19:53:00,
2013-07-03 15:58:00,90.0,71.1,30.28,East,90,0.0,4.0,54,0.00,,---,0.00,VWS V14.01,2013-07-03 19:58:00,
2013-07-03 16:03:00,89.0,70.8,30.28,South,180,0.0,4.0,55,0.00,,---,0.00,VWS V14.01,2013-07-03 20:03:00,
2013-07-03 16:08:00,89.0,71.8,30.28,South,180,0.0,4.0,57,0.00,,---,0.00,VWS V14.01,2013-07-03 20:08:00,
2013-07-03 16:13:00,88.0,70.9,30.28,West,270,0.0,4.0,57,0.00,,---,0.00,VWS V14.01,2013-07-03 20:13:00,
2013-07-03 16:18:00,87.0,70.9,30.28,SW,225,0.0,4.0,59,0.00,,---,0.00,VWS V14.01,2013-07-03 20:18:00,
2013-07-03 16:23:00,87.0,71.4,30.27,SE,135,0.0,1.0,60,0.00,,---,0.00,VWS V14.01,2013-07-03 20:23:00,
2013-07-03 16:28:00,87.0,71.9,30.27,SSW,202,0.0,1.0,61,0.00,,---,0.00,VWS V14.01,2013-07-03 20:28:00,
2013-07-03 16:33:00,86.0,71.5,30.27,South,180,0.0,2.0,62,0.00,,---,0.00,VWS V14.01,2013-07-03 20:33:00,
2013-07-03 16:38:00,86.0,72.4,30.26,South,180,0.0,3.0,64,0.00,,---,0.00,VWS V14.01,2013-07-03 20:38:00,
2013-07-03 16:43:00,86.0,72.9,30.26,South,180,0.0,0.0,65,0.00,,---,0.00,VWS V14.01,2013-07-03 20:43:00,
2013-07-03 16:48:00,87.0,72.4,30.26,SW,225,0.0,2.0,62,0.00,,---,0.00,VWS V14.01,2013-07-03 20:48:00,
2013-07-03 16:53:00,87.0,72.9,30.26,NW,315,0.0,2.0,63,0.00,,---,0.00,VWS V14.01,2013-07-03 20:53:00,
2013-07-03 16:58:00,87.0,72.4,30.26,South,180,0.0,2.0,62,0.00,,---,0.00,VWS V14.01,2013-07-03 20:58:00,
2013-07-03 17:03:00,87.0,73.8,30.26,SSW,202,0.0,2.0,65,0.00,,---,0.00,VWS V14.01,2013-07-03 21:03:00,
2013-07-03 17:08:00,86.0,71.9,30.26,SSW,202,2.0,2.0,63,0.00,,---,0.00,VWS V14.01,2013-07-03 21:08:00,
2013-07-03 17:13:00,86.0,72.9,30.26,SW,225,0.0,2.0,65,0.00,,---,0.00,VWS V14.01,2013-07-03 21:13:00,
2013-07-03 17:18:00,86.0,72.4,30.26,North,360,0.0,2.0,64,0.00,,---,0.00,VWS V14.01,2013-07-03 21:18:00,
2013-07-03 17:23:00,85.0,72.4,30.26,SW,225,0.0,0.0,66,0.00,,---,0.00,VWS V14.01,2013-07-03 21:23:00,
2013-07-03 17:28:00,85.0,72.4,30.25,North,360,0.0,2.0,66,0.00,,---,0.00,VWS V14.01,2013-07-03 21:28:00,
2013-07-03 17:33:00,85.0,72.8,30.25,SW,225,0.0,1.0,67,0.00,,---,0.00,VWS V14.01,2013-07-03 21:33:00,
2013-07-03 17:38:00,85.0,72.8,30.25,WSW,247,0.0,3.0,67,0.00,,---,0.00,VWS V14.01,2013-07-03 21:38:00,
2013-07-03 17:43:00,85.0,72.4,30.25,WSW,247,0.0,0.0,66,0.00,,---,0.00,VWS V14.01,2013-07-03 21:43:00,
2013-07-03 17:48:00,86.0,73.3,30.25,SSW,202,0.0,2.0,66,0.00,,---,0.00,VWS V14.01,2013-07-03 21:48:00,
2013-07-03 17:54:00,86.0,72.4,30.25,SSW,202,0.0,2.0,64,0.00,,---,0.00,VWS V14.01,2013-07-03 21:54:00,
2013-07-03 17:59:00,86.0,71.9,30.25,SE,135,0.0,3.0,63,0.00,,---,0.00,VWS V14.01,2013-07-03 21:59:00,
2013-07-03 18:04:00,86.0,72.4,30.25,WNW,292,0.0,1.0,64,0.00,,---,0.00,VWS V14.01,2013-07-03 22:04:00,
2013-07-03 18:09:00,86.0,72.9,30.25,West,270,0.0,2.0,65,0.00,,---,0.00,VWS V14.01,2013-07-03 22:09:00,
2013-07-03 18:14:00,86.0,71.5,30.25,WNW,292,0.0,2.0,62,0.00,,---,0.00,VWS V14.01,2013-07-03 22:14:00,
2013-07-03 18:19:00,87.0,72.9,30.25,West,270,0.0,2.0,63,0.00,,---,0.00,VWS V14.01,2013-07-03 22:19:00,
2013-07-03 18:24:00,86.0,71.5,30.25,South,180,0.0,2.0,62,0.00,,---,0.00,VWS V14.01,2013-07-03 22:24:00,
2013-07-03 18:29:00,86.0,71.9,30.25,SSE,157,0.0,2.0,63,0.00,,---,0.00,VWS V14.01,2013-07-03 22:29:00,
2013-07-03 18:34:00,86.0,72.4,30.25,South,180,0.0,1.0,64,0.00,,---,0.00,VWS V14.01,2013-07-03 22:34:00,
2013-07-03 18:39:00,85.0,71.0,30.25,South,180,0.0,1.0,63,0.00,,---,0.00,VWS V14.01,2013-07-03 22:39:00,
2013-07-03 18:44:00,86.0,71.9,30.25,SW,225,0.0,2.0,63,0.00,,---,0.00,VWS V14.01,2013-07-03 22:44:00,
2013-07-03 18:49:00,86.0,71.5,30.25,SSW,202,0.0,2.0,62,0.00,,---,0.00,VWS V14.01,2013-07-03 22:49:00,
2013-07-03 18:54:00,86.0,71.5,30.25,SSW,202,0.0,0.0,62,0.00,,---,0.00,VWS V14.01,2013-07-03 22:54:00,
2013-07-03 18:59:00,87.0,72.4,30.25,West,270,4.0,4.0,62,0.00,,---,0.00,VWS V14.01,2013-07-03 22:59:00,
2013-07-03 19:04:00,86.0,71.0,30.25,South,180,0.0,3.0,61,0.00,,---,0.00,VWS V14.01,2013-07-03 23:04:00,
2013-07-03 19:09:00,86.0,71.0,30.25,SSW,202,0.0,3.0,61,0.00,,---,0.00,VWS V14.01,2013-07-03 23:09:00,
2013-07-03 19:14:00,86.0,71.5,30.25,SSE,157,0.0,2.0,62,0.00,,---,0.00,VWS V14.01,2013-07-03 23:14:00,
2013-07-03 19:19:00,85.0,71.0,30.25,South,180,0.0,4.0,63,0.00,,---,0.00,VWS V14.01,2013-07-03 23:19:00,
2013-07-03 19:24:00,84.0,71.0,30.24,WNW,292,0.0,2.0,65,0.00,,---,0.00,VWS V14.01,2013-07-03 23:24:00,
2013-07-03 19:29:00,84.0,71.4,30.24,South,180,0.0,2.0,66,0.00,,---,0.00,VWS V14.01,2013-07-03 23:29:00,
2013-07-03 19:34:00,83.0,70.5,30.24,West,270,0.0,5.0,66,0.00,,---,0.00,VWS V14.01,2013-07-03 23:34:00,
2013-07-03 19:39:00,83.0,71.4,30.24,WSW,247,0.0,5.0,68,0.00,,---,0.00,VWS V14.01,2013-07-03 23:39:00,
2013-07-03 19:44:00,82.0,70.4,30.24,WNW,292,0.0,2.0,68,0.00,,---,0.00,VWS V14.01,2013-07-03 23:44:00,
2013-07-03 19:49:00,82.0,71.3,30.24,South,180,0.0,2.0,70,0.00,,---,0.00,VWS V14.01,2013-07-03 23:49:00,
2013-07-03 19:54:00,82.0,71.7,30.24,South,180,0.0,0.0,71,0.00,,---,0.00,VWS V14.01,2013-07-03 23:54:00,
2013-07-03 19:59:00,81.0,71.1,30.24,West,270,0.0,0.0,72,0.00,,---,0.00,VWS V14.01,2013-07-03 23:59:00,
2013-07-03 20:04:00,81.0,71.5,30.25,SW,225,0.0,0.0,73,0.00,,---,0.00,VWS V14.01,2013-07-04 00:04:00,
2013-07-03 20:09:00,80.0,71.4,30.25,SSW,202,0.0,2.0,75,0.00,,---,0.00,VWS V14.01,2013-07-04 00:09:00,
2013-07-03 20:14:00,80.0,71.4,30.25,SSW,202,0.0,0.0,75,0.00,,---,0.00,VWS V14.01,2013-07-04 00:14:00,